Location: Brias
(50.4089°N, 2.3815°E)
Time: 08:21:18
(UTC+00:00)

Daily predictions for brighter satellites

Satellite Brightness Start Highest point End
(mag) Time Altitude Azimuth Time Altitude Azimuth Time Altitude Azimuth
Cosmos 1464 Rocket 4.1 20:05:26 10° N 20:11:49 86° ENE 20:18:04 10° S
Meteor 2-2 Rocket 4.4 20:06:59 10° S 20:12:58 68° E 20:18:57 10° NNE
Okean O Rocket 2.7 20:13:02 10° S 20:17:17 45° W 20:21:35 10° NNW
USA 234 4.2 20:12:48 10° ENE 20:19:05 51° N 20:25:23 10° W
Terra 2.5 20:14:44 10° SE 20:19:08 41° ENE 20:23:33 10° N
Cosmos 1656 Rocket 4.1 20:16:22 10° NNW 20:21:42 52° NE 20:27:03 10° SE
Cosmos 1371 Rocket 4.3 20:17:04 10° NNW 20:22:23 60° ENE 20:27:40 10° SE
ERS-1 Rocket 3.3 20:19:44 10° SE 20:24:37 54° ENE 20:29:32 10° N
MOS 1 4.4 20:19:40 10° SSE 20:25:22 83° WSW 20:31:04 10° NNW
ATLAS 2AS CENTAUR R/B 2.9 20:18:19 10° SW 20:25:43 88° NW 20:32:52 10° NE
USA 307 2.7 20:25:54 10° NNW 20:26:08 11° N 20:26:23 10° N
SPOT 3 Rocket 4.2 20:24:34 10° SE 20:29:23 42° ENE 20:34:14 10° N
USA 59 Rocket 2.3 20:27:41 10° N 20:29:25 13° NNE 20:31:20 10° NE
Cosmos 1782 3.1 20:26:23 10° SSW 20:30:10 67° WNW 20:34:00 10° N
IRS-1A Rocket 4.3 20:26:27 10° SSE 20:32:07 80° ENE 20:37:42 10° NNW
Meteor 1-26 Rocket 4.5 20:27:49 10° S 20:33:45 61° E 20:39:42 10° NNE
Cosmos 1943 Rocket 3.2 20:28:30 10° NW 20:33:50 43° WSW 20:39:07 10° S
USA 281 3.6 20:27:58 10° SE 20:34:20 54° NE 20:40:44 10° NNW
Cosmos 1420 Rocket 4.1 20:29:35 10° NNW 20:34:57 85° ENE 20:40:16 10° SSE
Cosmos 1743 3.1 20:34:44 10° N 20:38:12 42° ENE 20:41:25 11° SSE
Cosmos 2278 Rocket 4.1 20:33:50 10° NW 20:38:23 25° WSW 20:42:55 10° SSW
ISS -3.5 20:36:01 10° W 20:39:21 70° N 20:42:41 10° E
NOSS 3-1 (A) 4.3 20:32:12 10° NW 20:39:23 70° SW 20:48:07 10° SSE
Cosmos 972 4.3 20:35:42 10° SSW 20:40:35 83° ESE 20:45:35 10° NNE
USA 245 1.9 20:42:39 13° SSE 20:44:33 63° ENE 20:46:46 10° N
Cosmos 2297 3.8 20:40:16 10° NNW 20:46:03 78° ENE 20:51:24 12° SE
Cosmos 1634 Rocket 4.2 20:40:20 10° N 20:46:36 61° ENE 20:52:38 11° SSE
Cosmos 2112 Rocket 4.1 20:44:47 10° S 20:50:02 62° ESE 20:55:16 10° NNE
USA 290 3.0 20:47:20 10° NW 20:50:26 46° WSW 20:53:32 10° S
Cosmos 1766 Rocket 3.6 20:46:55 10° N 20:51:21 70° E 20:55:32 11° SSE
Okean-O 3.9 20:48:02 10° SSW 20:52:08 38° W 20:56:17 10° NNW
USA 229 DEB 4.1 20:47:01 10° NW 20:54:20 75° NE 21:01:46 12° SE
USA 229 4.1 20:47:07 10° NW 20:54:26 75° NE 21:01:53 12° SE
Cosmos 2034 Rocket 4.3 20:49:24 10° NNW 20:55:34 69° W 21:01:45 10° S
Cosmos 1726 3.0 20:54:00 10° NNE 20:56:43 26° ENE 20:58:35 15° ESE
Spot 2 Rocket 3.5 20:54:06 11° SSE 20:58:55 80° ENE 21:03:59 10° NNW
Cosmos 1680 Rocket 3.5 20:54:58 10° SSW 21:00:16 86° ESE 21:05:34 10° NNE
Meteor 2-6 Rocket 4.4 20:59:00 10° S 21:04:28 55° E 21:09:51 10° NNE
USA 32 4.0 21:01:43 10° S 21:06:55 74° E 21:12:09 10° N
Tsikada Rocket 4.0 21:03:11 10° S 21:09:22 88° E 21:15:40 10° N
Sich 1 4.4 21:09:26 10° N 21:13:09 27° ENE 21:15:51 15° ESE
USA 276 1.5 21:12:21 10° W 21:14:30 47° SSW 21:15:14 31° SE
MetOp-A 4.0 21:11:24 17° SE 21:14:41 55° ENE 21:19:21 10° N
Cosmos 2263 4.3 21:09:51 10° NNW 21:15:33 76° ENE 21:20:00 17° SE
SL-16 R/B 2.2 21:09:58 10° SSW 21:15:40 90° NE 21:21:24 10° NNE
MOS 1 Rocket 3.5 21:13:56 15° SSE 21:18:11 88° ENE 21:23:30 10° NNW
Cosmos 2056 Rocket 4.1 21:13:31 10° NNW 21:18:47 54° WSW 21:23:28 13° S
Lacrosse 5 3.0 21:15:04 10° WNW 21:19:36 33° SW 21:23:08 15° S
Cosmos 1536 3.3 21:16:15 10° N 21:19:58 43° ENE 21:22:15 20° SE
Ariane Rocket 3.2 21:16:49 13° S 21:21:23 70° WSW 21:26:29 10° NNW
Lacrosse 5 rocket 1.5 21:17:08 10° WSW 21:21:26 77° NNW 21:25:39 10° ENE
Cosmos 1452 Rocket 3.8 21:17:48 10° NNW 21:23:00 59° ENE 21:26:45 19° SE
Cosmos 1408 Rocket 4.0 21:19:01 10° N 21:23:22 50° ENE 21:26:12 20° SE
Cosmos 44 3.9 21:18:50 10° NW 21:23:28 44° WSW 21:26:45 17° S
Spot 1 4.0 21:20:33 10° NNE 21:24:33 56° ESE 21:27:37 17° S
Cosmos 1340 4.2 21:24:39 10° NNE 21:27:17 20° ENE 21:28:49 16° ESE
Okean 1 4.2 21:25:59 21° SE 21:27:40 30° E 21:31:05 10° NNE
Cosmos 2221 3.2 21:23:54 10° SSW 21:28:08 56° WNW 21:32:25 10° N
Cosmos 2369 Rocket 2.3 21:22:38 10° NNW 21:28:13 71° WSW 21:32:23 18° SSE
Cosmos 2084 3.9 21:28:15 10° NW 21:31:50 41° SW 21:33:53 21° S
FALCON 9 R/B 4.4 21:29:09 10° SW 21:35:23 32° S 21:52:39 10° ESE
USA 306 3.1 21:37:46 10° WNW 21:41:33 60° NNE 21:45:08 12° E
Cosmos 921 Rocket 3.3 21:38:42 10° SSW 21:43:10 71° WNW 21:47:40 10° NNE
Okean 3 Rocket 3.9 21:40:40 10° NNW 21:45:02 61° W 21:48:05 19° S
GEOS 3 Rocket 3.6 21:41:08 10° NE 21:46:22 85° NW 21:51:29 10° SW
ATLAS 3B R/B 4.1 21:44:17 10° NW 21:51:07 34° WSW 21:57:02 13° S
Landsat 5 3.2 21:48:28 10° NNE 21:52:16 82° WNW 21:54:55 19° SSW
SL-8 R/B 4.2 21:50:04 10° SW 21:54:21 34° SSE 21:58:40 10° E
Cosmos 1500 Rocket 3.5 21:51:24 10° N 21:55:45 77° E 21:57:58 28° SSE
Terra 3.4 21:52:45 10° SSW 21:56:50 29° W 22:00:57 10° NNW
Cosmos 1733 3.2 21:55:24 10° N 21:58:53 58° ENE 22:00:07 35° SE
Cosmos 1943 3.2 21:53:57 13° SSW 21:59:00 68° ESE 22:04:39 10° NNE
ALOS 2 4.4 21:58:50 14° ESE 22:01:20 22° ENE 22:04:43 10° N
USA 234 3.8 21:55:12 10° E 22:01:36 58° NNE 22:08:00 10° WNW
Cosmos 1048 Rocket 3.9 21:59:01 14° SSW 22:03:28 84° ESE 22:08:37 10° NNE
H-2A R/B 3.3 22:02:30 24° ESE 22:04:25 38° ENE 22:08:20 10° N
Cosmos 1805 Rocket 3.5 22:00:17 10° N 22:04:40 79° E 22:06:48 30° SSE
Cosmos 1842 Rocket 4.2 22:01:42 13° SSW 22:05:35 54° WNW 22:09:57 10° N
Cosmos 494 Rocket 4.2 22:01:36 10° SSW 22:06:41 71° WNW 22:11:49 10° NNE
Lacrosse 4 Rocket 3.5 22:03:55 10° NNW 22:07:03 21° NE 22:10:13 10° E
Meteor 1-10 Rocket 4.3 22:02:23 16° SSW 22:07:10 83° WNW 22:12:52 10° N
Cosmos 1151 Rocket 3.5 22:08:37 30° SE 22:10:17 46° E 22:14:27 10° NNE
Meteor 2-9 Rocket 4.3 22:05:33 10° NNW 22:11:22 84° W 22:14:56 25° S
Cosmos 1666 Rocket 4.5 22:08:34 10° N 22:12:35 35° ENE 22:14:23 25° ESE
Cosmos 1302 Rocket 4.1 22:09:14 10° NNW 22:14:25 67° ENE 22:17:13 27° SE
Meteor 1-11 Rocket 4.0 22:09:03 10° NNW 22:14:36 64° W 22:18:13 23° S
ISS -3.7 22:12:44 10° WNW 22:16:01 57° SSW 22:16:32 49° SSE
Cosmos 1633 Rocket 4.2 22:12:14 10° N 22:16:16 33° ENE 22:18:08 23° ESE
Meteor 2-10 4.2 22:10:55 10° NNW 22:16:34 79° W 22:19:41 27° S
ATLAS 2AS CENTAUR R/B 4.4 22:10:51 10° W 22:17:30 37° NNW 22:23:54 10° NE
Meteor 1-19 Rocket 4.3 22:14:07 23° S 22:17:59 78° E 22:23:49 10° NNE
ARIANE 5 R/B 2.5 22:16:04 32° SSE 22:18:02 78° ENE 22:22:22 10° NNW
Cosmos 1340 Rocket 2.8 22:17:22 36° SSE 22:18:46 62° E 22:22:45 10° NNE
USA 281 4.1 22:14:24 17° SSW 22:19:00 39° WSW 22:25:10 10° NW
USA 59 Rocket 0.7 22:16:15 10° NW 22:19:48 47° NE 22:22:59 18° ESE
Cosmos 1331 Rocket 4.3 22:15:21 10° NNW 22:20:30 57° WSW 22:23:13 27° S
NOSS 2-1 (E) 4.2 22:17:06 10° NW 22:20:41 48° NE 22:23:49 19° ESE
MINOTAUR 4 R/B 3.5 22:19:05 10° NNE 22:22:04 64° ESE 22:22:22 59° SE
BREEZE-M DEB (TANK) 4.4 22:18:55 10° WSW 22:23:02 79° SSE 22:41:51 10° E
IRIDIUM 103 4.4 22:18:46 10° N 22:23:59 65° E 22:26:30 30° SSE
H-2A R/B 4.3 22:23:18 10° ENE 22:25:00 12° E 22:25:53 11° E
CZ-2C R/B 3.6 22:20:48 10° NNE 22:25:22 71° ESE 22:27:22 32° S
Cosmos 1726 3.9 22:27:29 10° NW 22:29:47 19° W 22:31:07 15° WSW
NOSS 2-1 (D) 3.8 22:28:42 10° NW 22:32:19 61° NE 22:34:55 24° ESE
Nadezhda 4 Rocket 4.0 22:30:38 23° SSW 22:34:45 83° W 22:41:02 10° N
Molniya-1 4.5 22:35:27 23° SSW 22:38:11 73° SE 22:49:42 10° NE
Cosmos 1805 3.0 22:35:28 10° N 22:39:12 89° WSW 22:40:09 49° S
IRIDIUM 106 4.3 22:37:03 10° N 22:42:19 90° NNW 22:44:45 33° S
Cosmos 1743 Rocket 4.3 22:41:52 10° NNW 22:46:03 44° W 22:47:56 27° SSW
Sich 1 4.1 22:46:40 10° NNW 22:50:40 37° W 22:52:35 24° SW
Spot 2 4.3 22:50:57 37° SSE 22:52:45 73° ENE 22:57:34 10° NNW
Cosmos 1975 2.7 22:52:11 10° NNW 22:56:08 76° W 22:57:09 48° S
Lacrosse 5 rocket 3.1 22:56:20 10° WNW 23:00:15 35° N 23:04:05 10° ENE
Cosmos 1340 3.7 22:58:35 10° NNW 23:01:36 29° W 23:02:14 27° WSW
Cosmos 1603 4.0 22:57:29 16° SW 23:02:05 68° WNW 23:07:49 10° NNE
Cosmos 1626 1.7 23:04:41 65° ESE 23:04:47 66° E 23:08:01 10° NNE
PSLV R/B 4.4 23:02:42 10° N 23:06:42 55° WNW 23:08:26 30° SW
USA 267 3.4 23:00:47 10° ENE 23:07:07 50° SE 23:10:42 26° SSW
NOSS 2-1 (C) 3.4 23:03:48 10° NW 23:07:33 76° SW 23:09:08 40° SSE
Cosmos 1674 3.8 23:07:50 26° E 23:07:58 27° E 23:10:58 10° NNE
Cosmos 2369 Rocket 4.4 23:09:02 10° WNW 23:11:12 12° W 23:13:21 10° WSW
PSLV R/B 4.4 23:08:34 10° NNE 23:12:53 39° E 23:13:59 33° SE
USA 306 2.8 23:11:33 10° WNW 23:15:15 49° SW 23:15:15 49° SW
Cosmos 2026 Rocket 4.1 23:12:23 28° SSW 23:15:55 78° WNW 23:22:13 10° N
Cosmos 1833 Rocket 3.8 23:17:10 24° SE 23:18:35 27° ESE 23:23:15 10° NE
NOSS 3-3 (C) 4.3 23:26:06 34° SSE 23:27:38 41° ESE 23:33:29 10° NE
SL-24 R/B 4.4 23:25:47 10° NNE 23:30:10 60° ESE 23:31:32 41° SSE
Cosmos 220 Rocket 3.9 23:30:06 44° SSW 23:31:26 87° WNW 23:35:47 10° NNE
Cosmos 1515 Rocket 3.6 23:31:37 46° SSE 23:32:42 65° E 23:37:00 10° NNE
GP-B 4.2 23:30:27 10° NNE 23:34:28 33° E 23:35:54 27° ESE
Cosmos 1328 Rocket 3.8 23:33:11 37° SW 23:34:40 59° WNW 23:38:58 10° N
SL-8 R/B 3.5 23:31:40 10° WSW 23:36:23 67° S 23:41:09 10° E
Cosmos 1553 Rocket 3.9 23:30:48 10° NNW 23:36:52 79° W 23:39:39 34° S
ALOS 2 3.0 23:36:13 40° SSW 23:37:22 51° W 23:41:40 10° NNW
H-2A R/B 3.9 23:38:30 22° WSW 23:39:30 25° W 23:42:58 10° NW
Cosmos 1470 Rocket 3.8 23:36:09 10° NNW 23:40:34 61° W 23:41:47 43° SSW
Cosmos 1869 Rocket 4.2 23:37:13 10° N 23:41:25 46° ENE 23:42:58 32° SE
USA 234 3.2 23:38:50 15° SE 23:44:30 78° SSW 23:51:06 10° WNW
Lacrosse 4 Rocket 1.3 23:41:42 10° NW 23:45:45 69° WSW 23:46:28 55° S
Meteor 2-4 Rocket 4.5 23:42:30 23° SW 23:45:58 50° WNW 23:51:45 10° N
NOSS 8 (A) 4.4 23:46:21 53° WSW 23:47:02 75° NW 23:50:06 10° NE
Cosmos 1633 Rocket 4.3 23:50:04 10° NNW 23:53:54 30° W 23:55:08 25° WSW
